Nahoriany

Ukraine / Vinnytsia Region     48˚29′38″N   27˚35′06″E
temp.,
°C
wind,
m/s
gust,
m/s
humid.,
%
clouds,
%
prec.,
mm/h
press.,
hPa
HPBL,
m
28 november, sat
sat2823:00+2˚nw2389100 0.0 1021108
02:00+2˚nw1295100 0.0 1020100
05:00+2˚nw1198100 0.1 101947
08:00+3˚nw1397100 0.5 1019179
11:00+3˚wnw3483100 0.1 1020477
14:00+4˚nw2371100 0.1 1019741
17:00+3˚nw2376100 0.0 1019400
20:00+2˚w1287100 0.0 101961
29 november, sun
sun2923:00w229054 0.0 102024
02:00wnw129474 0.0 102023
05:00wnw119271 0.0 101921
08:00−1˚nw119179 0.0 102021
11:00+2˚ssw017582 0.0 1021398
14:00+2˚s107279 0.0 1020538
17:00ese1197100 0.2 102158
20:00ene1195100 0.4 1022145
30 november, mon
mon3023:00nne1195100 0.1 1022107
02:00+1˚nne1287100 0.1 1023131
05:00−1˚n3492100 0.0 1023144
08:00−2˚nnw249279 0.0 1025124
11:00+1˚nnw23730 0.0 1026452
14:00+2˚nnw45630 0.0 1026683
17:00nnw36780 0.0 1027171
20:00−2˚nnw47830 0.0 1028271
1 december, tue
tue123:00−2˚nnw26820 0.0 1028257
02:00−3˚nnw25820 0.0 1029190
05:00−3˚n24840 0.0 1029152
08:00−4˚n23870 0.0 1029109
11:00−1˚nne23700 0.0 1029430
14:00+1˚ne33620 0.0 1027538
17:00−2˚ne33760 0.0 102755
20:00−3˚ene35810 0.0 1028136
2 december, wed
wed223:00−3˚ne23820 0.0 102896
02:00−3˚ne238421 0.0 102890
05:00−3˚ne259075 0.0 1027173
08:00−3˚ene249478 0.1 1027175
11:00−1˚ese238484 0.0 1027322
14:00se128589 0.1 1026335
17:00se1290100 0.0 102671
20:00ese1192100 0.0 102748